| time (UTC) | temp F | wind direction | speed MPH | gust MPH | rain 1hr in | rain 24hr in | rain mn in | humidity % | barometer mb |
| 20260905201516 | 64 | 315 | 2.0 | 6.0 | 0.00 | 0.02 | 0.02 | 91 | 1013.6 |
| 20260905201016 | 64 | 315 | 3.0 | 8.0 | 0.00 | 0.02 | 0.02 | 91 | 1013.6 |
| 20260905200516 | 64 | 315 | 3.0 | 6.0 | 0.00 | 0.02 | 0.02 | 90 | 1013.5 |
| 20260905200016 | 64 | 315 | 2.0 | 7.0 | 0.00 | 0.02 | 0.02 | 90 | 1013.5 |
| 20260905195516 | 64 | 315 | 2.0 | 8.0 | 0.00 | 0.02 | 0.02 | 89 | 1013.4 |
| 20260905195016 | 65 | 315 | 2.0 | 6.0 | 0.00 | 0.02 | 0.02 | 88 | 1013.5 |
| 20260905194536 | 65 | 315 | 2.0 | 6.0 | 0.00 | 0.02 | 0.02 | 89 | 1013.5 |
| 20260905194036 | 65 | 315 | 3.0 | 7.0 | 0.00 | 0.02 | 0.02 | 88 | 1013.4 |
| 20260905193516 | 65 | 315 | 3.0 | 7.0 | 0.00 | 0.02 | 0.02 | 89 | 1013.4 |
| 20260905193016 | 65 | 315 | 3.0 | 7.0 | 0.00 | 0.02 | 0.02 | 88 | 1013.4 |
| 20260905192516 | 65 | 315 | 4.0 | 9.0 | 0.00 | 0.02 | 0.02 | 88 | 1013.4 |
| 20260905192016 | 65 | 293 | 2.0 | 7.0 | 0.00 | 0.02 | 0.02 | 91 | 1013.4 |
| 20260905191516 | 65 | 315 | 3.0 | 6.0 | 0.00 | 0.02 | 0.02 | 91 | 1013.4 |
| 20260905191016 | 64 | 315 | 4.0 | 8.0 | 0.00 | 0.02 | 0.02 | 92 | 1013.4 |
| 20260905190516 | 64 | 315 | 5.0 | 10.0 | 0.00 | 0.02 | 0.02 | 90 | 1013.4 |
| 20260905190016 | 64 | 315 | 3.0 | 7.0 | 0.00 | 0.02 | 0.02 | 90 | 1013.4 |
| 20260905185516 | 64 | 315 | 3.0 | 6.0 | 0.00 | 0.02 | 0.02 | 91 | 1013.4 |
| 20260905185016 | 64 | 315 | 3.0 | 8.0 | 0.00 | 0.02 | 0.02 | 92 | 1013.4 |
| 20260905184516 | 63 | 315 | 2.0 | 4.0 | 0.00 | 0.02 | 0.02 | 92 | 1013.4 |
| 20260905184016 | 63 | 315 | 3.0 | 5.0 | 0.00 | 0.02 | 0.02 | 93 | 1013.4 |
| 20260905183516 | 63 | 270 | 1.0 | 3.0 | 0.01 | 0.02 | 0.02 | 94 | 1013.4 |
| 20260905183016 | 63 | 293 | 2.0 | 5.0 | 0.01 | 0.02 | 0.02 | 94 | 1013.4 |
| 20260905182516 | 63 | 293 | 2.0 | 5.0 | 0.02 | 0.02 | 0.02 | 94 | 1013.4 |
| 20260905182017 | 64 | 315 | 1.0 | 4.0 | 0.02 | 0.02 | 0.02 | 93 | 1013.5 |
| 20260905181516 | 64 | 0.0 | 2.0 | 0.02 | 0.02 | 0.02 | 94 | 1013.4 | |
| 20260905181016 | 63 | 293 | 1.0 | 5.0 | 0.02 | 0.02 | 0.02 | 95 | 1013.4 |
| 20260905180516 | 63 | 315 | 3.0 | 7.0 | 0.02 | 0.02 | 0.02 | 95 | 1013.4 |
| 20260905180016 | 62 | 315 | 2.0 | 4.0 | 0.02 | 0.02 | 0.02 | 95 | 1013.5 |
| 20260905175556 | 62 | 293 | 1.0 | 2.0 | 0.02 | 0.02 | 0.02 | 96 | 1013.5 |
| 20260905175016 | 62 | 270 | 1.0 | 2.0 | 0.02 | 0.02 | 0.02 | 96 | 1013.4 |
| 20260905174516 | 62 | 0.0 | 1.0 | 0.02 | 0.02 | 0.02 | 95 | 1013.4 | |
| 20260905174036 | 62 | 0.0 | 2.0 | 0.02 | 0.02 | 0.02 | 94 | 1013.5 | |
| 20260905173516 | 63 | 315 | 2.0 | 4.0 | 0.01 | 0.01 | 0.01 | 92 | 1013.5 |
| 20260905173036 | 64 | 315 | 2.0 | 10.0 | 0.01 | 0.01 | 0.01 | 91 | 1013.4 |
| 20260905172516 | 64 | 315 | 5.0 | 10.0 | 0.00 | 0.00 | 0.00 | 88 | 1013.4 |
| 20260905172016 | 65 | 338 | 3.0 | 5.0 | 0.00 | 0.00 | 0.00 | 87 | 1013.3 |
| 20260905171536 | 65 | 315 | 2.0 | 7.0 | 0.00 | 0.00 | 0.00 | 87 | 1013.3 |
| 20260905171016 | 65 | 315 | 3.0 | 9.0 | 0.00 | 0.00 | 0.00 | 89 | 1013.2 |
| 20260905170516 | 64 | 315 | 4.0 | 9.0 | 0.00 | 0.00 | 0.00 | 89 | 1013.3 |
| 20260905170016 | 64 | 315 | 2.0 | 6.0 | 0.00 | 0.00 | 0.00 | 91 | 1013.3 |
| 20260905165516 | 64 | 315 | 3.0 | 6.0 | 0.00 | 0.00 | 0.00 | 90 | 1013.4 |
| 20260905165016 | 64 | 270 | 1.0 | 6.0 | 0.00 | 0.00 | 0.00 | 91 | 1013.4 |
| 20260905164516 | 64 | 315 | 2.0 | 7.0 | 0.00 | 0.00 | 0.00 | 90 | 1013.4 |
| 20260905164016 | 64 | 338 | 2.0 | 7.0 | 0.00 | 0.00 | 0.00 | 88 | 1013.4 |
| 20260905163516 | 65 | 338 | 2.0 | 8.0 | 0.00 | 0.00 | 0.00 | 87 | 1013.4 |
| 20260905163016 | 66 | 315 | 3.0 | 6.0 | 0.00 | 0.00 | 0.00 | 86 | 1013.2 |
| 20260905162516 | 65 | 338 | 1.0 | 4.0 | 0.00 | 0.00 | 0.00 | 87 | 1013.3 |
| 20260905162016 | 65 | 293 | 2.0 | 4.0 | 0.00 | 0.00 | 0.00 | 89 | 1013.5 |
| 20260905161516 | 64 | 315 | 3.0 | 8.0 | 0.00 | 0.00 | 0.00 | 88 | 1013.4 |
| 20260905161036 | 64 | 315 | 3.0 | 6.0 | 0.00 | 0.00 | 0.00 | 88 | 1013.4 |
| 20260905160516 | 64 | 315 | 2.0 | 5.0 | 0.00 | 0.00 | 0.00 | 90 | 1013.5 |
| 20260905160036 | 63 | 315 | 2.0 | 8.0 | 0.00 | 0.00 | 0.00 | 90 | 1013.5 |
| 20260905155516 | 63 | 315 | 2.0 | 5.0 | 0.00 | 0.00 | 0.00 | 90 | 1013.5 |
| 20260905155016 | 63 | 315 | 2.0 | 5.0 | 0.00 | 0.00 | 0.00 | 90 | 1013.6 |
| 20260905154516 | 64 | 315 | 3.0 | 6.0 | 0.00 | 0.00 | 0.00 | 89 | 1013.6 |
| 20260905154016 | 64 | 338 | 3.0 | 6.0 | 0.00 | 0.00 | 0.00 | 88 | 1013.5 |
| 20260905153516 | 64 | 315 | 3.0 | 6.0 | 0.00 | 0.00 | 0.00 | 87 | 1013.5 |
| 20260905153016 | 64 | 315 | 2.0 | 8.0 | 0.00 | 0.00 | 0.00 | 88 | 1013.6 |
| 20260905152536 | 63 | 315 | 2.0 | 5.0 | 0.00 | 0.00 | 0.00 | 90 | 1013.7 |
| 20260905152016 | 63 | 293 | 1.0 | 3.0 | 0.00 | 0.00 | 0.00 | 90 | 1013.7 |
| 20260905151516 | 63 | 315 | 2.0 | 5.0 | 0.00 | 0.00 | 0.00 | 90 | 1013.7 |
| 20260905151036 | 63 | 315 | 2.0 | 5.0 | 0.00 | 0.00 | 0.00 | 90 | 1013.7 |
| 20260905150516 | 63 | 315 | 1.0 | 4.0 | 0.00 | 0.00 | 0.00 | 90 | 1013.7 |
| 20260905150016 | 63 | 315 | 1.0 | 3.0 | 0.00 | 0.00 | 0.00 | 90 | 1013.6 |
| 20260905145516 | 63 | 45 | 1.0 | 4.0 | 0.00 | 0.00 | 0.00 | 90 | 1013.5 |
| 20260905145016 | 64 | 315 | 1.0 | 4.0 | 0.00 | 0.00 | 0.00 | 88 | 1013.4 |
| 20260905144557 | 63 | 315 | 1.0 | 3.0 | 0.00 | 0.00 | 0.00 | 92 | 1013.4 |
| 20260905144016 | 62 | 315 | 2.0 | 5.0 | 0.00 | 0.00 | 0.00 | 91 | 1013.5 |
| 20260905143556 | 62 | 315 | 1.0 | 4.0 | 0.00 | 0.00 | 0.00 | 92 | 1013.5 |
| 20260905143016 | 63 | 315 | 3.0 | 6.0 | 0.00 | 0.00 | 0.00 | 90 | 1013.5 |
| 20260905142536 | 63 | 315 | 2.0 | 5.0 | 0.00 | 0.00 | 0.00 | 92 | 1013.5 |
| 20260905142036 | 63 | 293 | 1.0 | 4.0 | 0.00 | 0.00 | 0.00 | 91 | 1013.5 |
| 20260905141516 | 62 | 293 | 1.0 | 2.0 | 0.00 | 0.00 | 0.00 | 92 | 1013.6 |
| 20260905141016 | 63 | 315 | 2.0 | 5.0 | 0.00 | 0.00 | 0.00 | 90 | 1013.6 |
| 20260905140536 | 63 | 0.0 | 2.0 | 0.00 | 0.00 | 0.00 | 89 | 1013.5 | |
| 20260905140016 | 63 | 248 | 1.0 | 3.0 | 0.00 | 0.00 | 0.00 | 90 | 1013.5 |
| 20260905135516 | 63 | 0.0 | 3.0 | 0.00 | 0.00 | 0.00 | 92 | 1013.5 | |
| 20260905135036 | 62 | 315 | 1.0 | 4.0 | 0.00 | 0.00 | 0.00 | 91 | 1013.5 |
| 20260905134536 | 62 | 0.0 | 3.0 | 0.00 | 0.00 | 0.00 | 93 | 1013.6 | |
| 20260905134036 | 61 | 0.0 | 3.0 | 0.00 | 0.00 | 0.00 | 94 | 1013.5 | |
| 20260905133517 | 60 | 315 | 1.0 | 4.0 | 0.00 | 0.00 | 0.00 | 96 | 1013.5 |
| 20260905133016 | 60 | 0.0 | 2.0 | 0.00 | 0.00 | 0.00 | 96 | 1013.5 | |
| 20260905132516 | 60 | 270 | 1.0 | 2.0 | 0.00 | 0.00 | 0.00 | 95 | 1013.5 |
| 20260905132016 | 60 | 0.0 | 2.0 | 0.00 | 0.00 | 0.00 | 95 | 1013.4 | |
| 20260905131517 | 60 | 0.0 | 1.0 | 0.00 | 0.00 | 0.00 | 96 | 1013.3 | |
| 20260905131016 | 60 | 270 | 1.0 | 3.0 | 0.00 | 0.00 | 0.00 | 95 | 1013.3 |
| 20260905130516 | 60 | 293 | 2.0 | 3.0 | 0.00 | 0.00 | 0.00 | 96 | 1013.3 |
| 20260905130036 | 60 | 315 | 1.0 | 4.0 | 0.00 | 0.00 | 0.00 | 96 | 1013.3 |
| 20260905125516 | 60 | 315 | 1.0 | 2.0 | 0.00 | 0.00 | 0.00 | 96 | 1013.3 |
| 20260905125036 | 60 | 315 | 2.0 | 3.0 | 0.00 | 0.00 | 0.00 | 96 | 1013.3 |
| 20260905124538 | 59 | 0.0 | 1.0 | 0.00 | 0.00 | 0.00 | 97 | 1013.2 | |
| 20260905124016 | 59 | 315 | 1.0 | 3.0 | 0.00 | 0.00 | 0.00 | 97 | 1013.1 |
| 20260905123556 | 59 | 315 | 1.0 | 3.0 | 0.00 | 0.00 | 0.00 | 97 | 1013.2 |
| 20260905123016 | 59 | 293 | 1.0 | 3.0 | 0.00 | 0.00 | 0.00 | 96 | 1013.2 |
| 20260905122517 | 59 | 315 | 2.0 | 4.0 | 0.00 | 0.00 | 0.00 | 97 | 1013.1 |
| 20260905122016 | 59 | 315 | 1.0 | 3.0 | 0.00 | 0.00 | 0.00 | 97 | 1013.2 |
| 20260905121516 | 59 | 0.0 | 2.0 | 0.00 | 0.00 | 0.00 | 97 | 1013.2 | |
| 20260905121016 | 59 | 0.0 | 2.0 | 0.00 | 0.00 | 0.00 | 97 | 1013.1 | |
| 20260905120516 | 58 | 0.0 | 2.0 | 0.00 | 0.00 | 0.00 | 98 | 1013.1 | |
| 20260905120017 | 58 | 315 | 1.0 | 3.0 | 0.00 | 0.00 | 0.00 | 98 | 1013.0 |
| 20260905115516 | 58 | 0.0 | 2.0 | 0.00 | 0.00 | 0.00 | 99 | 1013.0 | |
| 20260905115016 | 58 | 0.0 | 0.0 | 0.00 | 0.00 | 0.00 | 99 | 1012.9 | |
| 20260905114516 | 58 | 315 | 1.0 | 3.0 | 0.00 | 0.00 | 0.00 | 99 | 1012.9 |
| 20260905114056 | 57 | 315 | 1.0 | 3.0 | 0.00 | 0.00 | 0.00 | 100 | 1012.9 |
| 20260905113516 | 57 | 0.0 | 2.0 | 0.00 | 0.00 | 0.00 | 100 | 1012.9 | |
| 20260905113037 | 57 | 0.0 | 1.0 | 0.00 | 0.00 | 0.00 | 100 | 1012.9 | |
| 20260905112516 | 57 | 0.0 | 0.0 | 0.00 | 0.00 | 0.00 | 100 | 1012.8 | |
| 20260905112016 | 57 | 0.0 | 1.0 | 0.00 | 0.00 | 0.00 | 100 | 1012.7 | |
| 20260905111516 | 57 | 0.0 | 1.0 | 0.00 | 0.00 | 0.00 | 100 | 1012.6 | |
| 20260905111016 | 56 | 0.0 | 1.0 | 0.00 | 0.00 | 0.00 | 100 | 1012.6 | |
| 20260905110536 | 56 | 0.0 | 1.0 | 0.00 | 0.00 | 0.00 | 100 | 1012.5 | |
| 20260905110017 | 55 | 0.0 | 2.0 | 0.00 | 0.00 | 0.00 | 100 | 1012.4 | |
| 20260905105557 | 55 | 0.0 | 0.0 | 0.00 | 0.00 | 0.00 | 100 | 1012.5 | |
| 20260905105036 | 55 | 0.0 | 1.0 | 0.00 | 0.00 | 0.00 | 100 | 1012.4 | |
| 20260905104516 | 54 | 0.0 | 0.0 | 0.00 | 0.00 | 0.00 | 100 | 1012.5 | |
| 20260905104016 | 54 | 0.0 | 0.0 | 0.00 | 0.00 | 0.00 | 100 | 1012.4 | |
| 20260905103516 | 53 | 0.0 | 0.0 | 0.00 | 0.00 | 0.00 | 100 | 1012.4 | |
| 20260905103017 | 53 | 0.0 | 0.0 | 0.00 | 0.00 | 0.00 | 100 | 1012.4 | |
| 20260905102516 | 54 | 0.0 | 0.0 | 0.00 | 0.00 | 0.00 | 100 | 1012.4 | |
| 20260905102036 | 54 | 0.0 | 0.0 | 0.00 | 0.00 | 0.00 | 100 | 1012.4 | |
| 20260905101516 | 53 | 0.0 | 2.0 | 0.00 | 0.00 | 0.00 | 100 | 1012.4 | |
| 20260905101016 | 53 | 0.0 | 0.0 | 0.00 | 0.00 | 0.00 | 100 | 1012.4 | |
| 20260905100516 | 53 | 0.0 | 1.0 | 0.00 | 0.00 | 0.00 | 100 | 1012.4 | |
| 20260905100016 | 52 | 0.0 | 2.0 | 0.00 | 0.00 | 0.00 | 100 | 1012.4 | |
| 20260905095516 | 52 | 0.0 | 0.0 | 0.00 | 0.00 | 0.00 | 100 | 1012.3 | |
| 20260905095016 | 52 | 0.0 | 0.0 | 0.00 | 0.00 | 0.00 | 100 | 1012.3 | |
| 20260905094516 | 52 | 0.0 | 0.0 | 0.00 | 0.00 | 0.00 | 100 | 1012.3 | |
| 20260905094016 | 52 | 0.0 | 0.0 | 0.00 | 0.00 | 0.00 | 100 | 1012.2 | |
| 20260905093517 | 52 | 0.0 | 0.0 | 0.00 | 0.00 | 0.00 | 99 | 1012.2 | |
| 20260905093037 | 52 | 0.0 | 0.0 | 0.00 | 0.00 | 0.00 | 100 | 1012.1 | |
| 20260905092516 | 52 | 0.0 | 0.0 | 0.00 | 0.00 | 0.00 | 99 | 1012.1 | |
| 20260905092017 | 52 | 0.0 | 0.0 | 0.00 | 0.00 | 0.00 | 100 | 1012.1 | |
| 20260905091517 | 52 | 0.0 | 0.0 | 0.00 | 0.00 | 0.00 | 99 | 1012.1 | |
| 20260905091016 | 53 | 0.0 | 0.0 | 0.00 | 0.00 | 0.00 | 99 | 1012.2 | |
| 20260905090516 | 53 | 0.0 | 0.0 | 0.00 | 0.00 | 0.00 | 99 | 1012.1 | |
| 20260905090016 | 53 | 0.0 | 0.0 | 0.00 | 0.00 | 0.00 | 99 | 1012.1 | |
| 20260905085516 | 53 | 0.0 | 0.0 | 0.00 | 0.00 | 0.00 | 99 | 1012.1 | |
| 20260905085016 | 53 | 0.0 | 0.0 | 0.00 | 0.00 | 0.00 | 99 | 1012.1 | |
| 20260905084517 | 53 | 0.0 | 0.0 | 0.00 | 0.00 | 0.00 | 99 | 1012.1 | |
| 20260905084016 | 53 | 0.0 | 0.0 | 0.00 | 0.00 | 0.00 | 99 | 1012.1 | |
| 20260905083516 | 53 | 0.0 | 1.0 | 0.00 | 0.00 | 0.00 | 99 | 1012.1 | |
| 20260905083017 | 54 | 0.0 | 0.0 | 0.00 | 0.00 | 0.00 | 99 | 1012.1 | |
| 20260905082516 | 54 | 0.0 | 0.0 | 0.00 | 0.00 | 0.00 | 99 | 1012.1 | |
| 20260905082037 | 54 | 0.0 | 0.0 | 0.00 | 0.00 | 0.00 | 99 | 1012.1 | |
| 20260905081516 | 54 | 0.0 | 1.0 | 0.00 | 0.00 | 0.00 | 99 | 1012.2 | |
| 20260905081017 | 54 | 0.0 | 0.0 | 0.00 | 0.00 | 0.00 | 99 | 1012.2 | |
| 20260905080516 | 55 | 0.0 | 0.0 | 0.00 | 0.00 | 0.00 | 99 | 1012.2 | |
| 20260905080056 | 55 | 0.0 | 0.0 | 0.00 | 0.00 | 0.00 | 99 | 1012.2 | |
| 20260905075536 | 55 | 0.0 | 0.0 | 0.00 | 0.00 | 0.00 | 99 | 1012.1 | |
| 20260905075016 | 55 | 0.0 | 0.0 | 0.00 | 0.00 | 0.00 | 99 | 1012.1 | |
| 20260905074516 | 55 | 0.0 | 1.0 | 0.00 | 0.00 | 0.00 | 98 | 1012.1 | |
| 20260905074017 | 56 | 0.0 | 0.0 | 0.00 | 0.00 | 0.00 | 99 | 1012.1 | |
| 20260905073516 | 56 | 0.0 | 0.0 | 0.00 | 0.00 | 0.00 | 99 | 1012.0 | |
| 20260905073017 | 56 | 0.0 | 0.0 | 0.00 | 0.00 | 0.00 | 99 | 1012.0 | |
| 20260905072516 | 55 | 0.0 | 2.0 | 0.00 | 0.00 | 0.00 | 99 | 1012.0 | |
| 20260905072016 | 55 | 0.0 | 0.0 | 0.00 | 0.00 | 0.00 | 99 | 1012.1 | |
| 20260905071516 | 55 | 0.0 | 0.0 | 0.00 | 0.00 | 0.00 | 99 | 1012.1 | |
| 20260905071016 | 55 | 0.0 | 0.0 | 0.00 | 0.00 | 0.00 | 99 | 1012.2 | |
| 20260905070517 | 55 | 0.0 | 0.0 | 0.00 | 0.00 | 0.00 | 99 | 1012.1 | |
| 20260905070037 | 56 | 0.0 | 0.0 | 0.00 | 0.00 | 0.00 | 99 | 1012.2 | |
| 20260905065517 | 56 | 0.0 | 0.0 | 0.00 | 0.00 | 0.00 | 99 | 1012.3 | |
| 20260905065017 | 56 | 0.0 | 0.0 | 0.00 | 0.00 | 0.00 | 99 | 1012.3 | |
| 20260905064516 | 56 | 0.0 | 0.0 | 0.00 | 0.00 | 0.00 | 99 | 1012.4 | |
| 20260905064017 | 56 | 0.0 | 0.0 | 0.00 | 0.00 | 0.00 | 99 | 1012.5 | |
| 20260905063516 | 56 | 0.0 | 0.0 | 0.00 | 0.00 | 0.00 | 99 | 1012.5 | |
| 20260905063016 | 56 | 0.0 | 0.0 | 0.00 | 0.00 | 0.00 | 99 | 1012.6 | |
| 20260905062536 | 56 | 0.0 | 0.0 | 0.00 | 0.00 | 0.00 | 99 | 1012.6 | |
| 20260905062016 | 56 | 0.0 | 0.0 | 0.00 | 0.00 | 0.00 | 99 | 1012.6 | |
| 20260905061516 | 56 | 0.0 | 0.0 | 0.00 | 0.00 | 0.00 | 99 | 1012.6 | |
| 20260905061037 | 56 | 0.0 | 0.0 | 0.00 | 0.00 | 0.00 | 99 | 1012.6 | |
| 20260905060516 | 56 | 0.0 | 0.0 | 0.00 | 0.00 | 0.00 | 98 | 1012.6 | |
| 20260905060016 | 56 | 0.0 | 0.0 | 0.00 | 0.00 | 0.00 | 98 | 1012.7 | |
| 20260905055516 | 56 | 0.0 | 0.0 | 0.00 | 0.00 | 0.00 | 98 | 1012.7 | |
| 20260905055016 | 57 | 0.0 | 0.0 | 0.00 | 0.00 | 0.00 | 98 | 1012.6 | |
| 20260905054516 | 57 | 0.0 | 0.0 | 0.00 | 0.00 | 0.00 | 98 | 1012.7 | |
| 20260905054016 | 57 | 0.0 | 0.0 | 0.00 | 0.00 | 0.00 | 98 | 1012.6 | |
| 20260905053516 | 57 | 0.0 | 0.0 | 0.00 | 0.00 | 0.00 | 98 | 1012.6 | |
| 20260905053017 | 57 | 0.0 | 1.0 | 0.00 | 0.00 | 0.00 | 98 | 1012.6 | |
| 20260905052517 | 57 | 0.0 | 0.0 | 0.00 | 0.00 | 0.00 | 97 | 1012.6 | |
| 20260905052016 | 57 | 113 | 1.0 | 3.0 | 0.00 | 0.00 | 0.00 | 98 | 1012.6 |
| 20260905051516 | 57 | 0.0 | 1.0 | 0.00 | 0.00 | 0.00 | 98 | 1012.7 | |
| 20260905051016 | 57 | 0.0 | 0.0 | 0.00 | 0.00 | 0.00 | 98 | 1012.7 | |
| 20260905050536 | 57 | 0.0 | 0.0 | 0.00 | 0.00 | 0.00 | 98 | 1012.6 | |
| 20260905050016 | 57 | 0.0 | 0.0 | 0.00 | 0.00 | 0.00 | 98 | 1012.6 | |
| 20260905045516 | 57 | 0.0 | 0.0 | 0.00 | 0.00 | 0.00 | 98 | 1012.7 | |
| 20260905045016 | 57 | 0.0 | 0.0 | 0.00 | 0.00 | 0.00 | 98 | 1012.8 | |
| 20260905044516 | 57 | 0.0 | 0.0 | 0.00 | 0.00 | 0.00 | 98 | 1012.8 | |
| 20260905044016 | 57 | 0.0 | 0.0 | 0.00 | 0.00 | 0.00 | 98 | 1012.9 | |
| 20260905043516 | 57 | 0.0 | 0.0 | 0.00 | 0.00 | 0.00 | 97 | 1012.9 | |
| 20260905043017 | 57 | 0.0 | 0.0 | 0.00 | 0.00 | 0.00 | 97 | 1013.0 | |
| 20260905042517 | 57 | 0.0 | 0.0 | 0.00 | 0.00 | 0.00 | 97 | 1012.9 | |
| 20260905042016 | 57 | 0.0 | 0.0 | 0.00 | 0.00 | 0.00 | 97 | 1013.0 | |
| 20260905041517 | 57 | 0.0 | 0.0 | 0.00 | 0.00 | 0.00 | 97 | 1013.0 | |
| 20260905041036 | 58 | 0.0 | 0.0 | 0.00 | 0.00 | 0.00 | 97 | 1013.1 | |
| 20260905040516 | 58 | 0.0 | 0.0 | 0.00 | 0.00 | 0.00 | 97 | 1013.0 | |
| 20260905040136 | 58 | 0.0 | 0.0 | 0.00 | 0.00 | 0.00 | 97 | 1013.0 | |
| 20260905035516 | 57 | 0.0 | 1.0 | 0.00 | 0.00 | 0.00 | 97 | 1013.0 | |
| 20260905035017 | 58 | 0.0 | 0.0 | 0.00 | 0.00 | 0.00 | 96 | 1013.0 | |
| 20260905034516 | 58 | 0.0 | 0.0 | 0.00 | 0.00 | 0.00 | 96 | 1013.2 | |
| 20260905034017 | 58 | 0.0 | 0.0 | 0.00 | 0.00 | 0.00 | 95 | 1013.2 | |
| 20260905033537 | 58 | 0.0 | 0.0 | 0.00 | 0.00 | 0.00 | 95 | 1012.9 | |
| 20260905033016 | 59 | 0.0 | 0.0 | 0.00 | 0.00 | 0.00 | 95 | 1012.8 | |
| 20260905032517 | 59 | 0.0 | 0.0 | 0.00 | 0.00 | 0.00 | 95 | 1012.8 | |
| 20260905032016 | 59 | 0.0 | 0.0 | 0.00 | 0.00 | 0.00 | 94 | 1012.7 | |
| 20260905031517 | 60 | 0.0 | 0.0 | 0.00 | 0.00 | 0.00 | 94 | 1012.7 | |
| 20260905031017 | 60 | 0.0 | 0.0 | 0.00 | 0.00 | 0.00 | 94 | 1012.8 | |
| 20260905030517 | 60 | 0.0 | 0.0 | 0.00 | 0.00 | 0.00 | 94 | 1012.9 | |
| 20260905030017 | 60 | 0.0 | 0.0 | 0.00 | 0.00 | 0.00 | 94 | 1013.0 | |
| 20260905025517 | 60 | 0.0 | 0.0 | 0.00 | 0.00 | 0.00 | 94 | 1013.0 | |
| 20260905025017 | 60 | 0.0 | 0.0 | 0.00 | 0.00 | 0.00 | 94 | 1013.0 | |
| 20260905024517 | 60 | 0.0 | 0.0 | 0.00 | 0.00 | 0.00 | 94 | 1013.0 | |
| 20260905024017 | 60 | 0.0 | 0.0 | 0.00 | 0.00 | 0.00 | 93 | 1013.0 | |
| 20260905023516 | 60 | 0.0 | 1.0 | 0.00 | 0.00 | 0.00 | 94 | 1012.9 | |
| 20260905023016 | 61 | 0.0 | 0.0 | 0.00 | 0.00 | 0.00 | 93 | 1013.0 | |
| 20260905022517 | 61 | 0.0 | 0.0 | 0.00 | 0.00 | 0.00 | 93 | 1013.1 | |
| 20260905022016 | 61 | 0.0 | 1.0 | 0.00 | 0.00 | 0.00 | 94 | 1013.1 | |
| 20260905021517 | 61 | 0.0 | 1.0 | 0.00 | 0.00 | 0.00 | 94 | 1013.1 | |
| 20260905021016 | 61 | 0.0 | 0.0 | 0.00 | 0.00 | 0.00 | 94 | 1013.1 | |
| 20260905020517 | 61 | 0.0 | 0.0 | 0.00 | 0.00 | 0.00 | 94 | 1013.1 | |
| 20260905020016 | 61 | 0.0 | 0.0 | 0.00 | 0.00 | 0.00 | 94 | 1013.2 | |
| 20260905015517 | 61 | 0.0 | 0.0 | 0.00 | 0.00 | 0.00 | 94 | 1013.2 | |
| 20260905015017 | 61 | 0.0 | 1.0 | 0.00 | 0.00 | 0.00 | 94 | 1013.2 | |
| 20260905014537 | 61 | 0.0 | 0.0 | 0.00 | 0.00 | 0.00 | 94 | 1013.1 | |
| 20260905014016 | 61 | 0.0 | 0.0 | 0.00 | 0.00 | 0.00 | 94 | 1013.2 | |
| 20260905013517 | 61 | 0.0 | 0.0 | 0.00 | 0.00 | 0.00 | 95 | 1013.4 | |
| 20260905013017 | 61 | 0.0 | 0.0 | 0.00 | 0.00 | 0.00 | 95 | 1013.4 | |
| 20260905012517 | 61 | 0.0 | 0.0 | 0.00 | 0.00 | 0.00 | 95 | 1013.4 | |
| 20260905012037 | 61 | 0.0 | 0.0 | 0.00 | 0.00 | 0.00 | 95 | 1013.3 | |
| 20260905011517 | 61 | 0.0 | 0.0 | 0.00 | 0.00 | 0.00 | 96 | 1013.3 | |
| 20260905011037 | 61 | 0.0 | 0.0 | 0.00 | 0.00 | 0.00 | 95 | 1013.3 | |
| 20260905010516 | 61 | 0.0 | 0.0 | 0.00 | 0.00 | 0.00 | 95 | 1013.2 | |
| 20260905010016 | 61 | 0.0 | 0.0 | 0.00 | 0.00 | 0.00 | 95 | 1013.3 | |
| 20260905005516 | 61 | 0.0 | 0.0 | 0.00 | 0.00 | 0.00 | 96 | 1013.4 | |
| 20260905005017 | 61 | 0.0 | 2.0 | 0.00 | 0.00 | 0.00 | 96 | 1013.3 | |
| 20260905004517 | 61 | 0.0 | 0.0 | 0.00 | 0.00 | 0.00 | 96 | 1013.3 | |
| 20260905004137 | 61 | 0.0 | 0.0 | 0.00 | 0.00 | 0.00 | 96 | 1013.2 | |
| 20260905003517 | 61 | 0.0 | 0.0 | 0.00 | 0.00 | 0.00 | 96 | 1013.3 | |
| 20260905003017 | 61 | 0.0 | 0.0 | 0.00 | 0.00 | 0.00 | 96 | 1013.3 | |
| 20260905002517 | 61 | 0.0 | 0.0 | 0.00 | 0.00 | 0.00 | 96 | 1013.3 | |
| 20260905002016 | 61 | 0.0 | 0.0 | 0.00 | 0.00 | 0.00 | 96 | 1013.3 | |
| 20260905001537 | 62 | 0.0 | 0.0 | 0.00 | 0.00 | 0.00 | 96 | 1013.1 | |
| 20260905001016 | 61 | 0.0 | 0.0 | 0.00 | 0.00 | 0.00 | 96 | 1013.1 | |
| 20260905000517 | 61 | 0.0 | 0.0 | 0.00 | 0.00 | 0.00 | 95 | 1013.1 | |
| 20260905000017 | 62 | 0.0 | 0.0 | 0.00 | 0.00 | 0.00 | 96 | 1013.0 | |
| 20260904235537 | 61 | 0.0 | 0.0 | 0.00 | 0.00 | 0.00 | 96 | 1013.0 | |
| 20260904235017 | 61 | 0.0 | 0.0 | 0.00 | 0.00 | 0.00 | 95 | 1012.9 | |
| 20260904234517 | 61 | 0.0 | 0.0 | 0.00 | 0.00 | 0.00 | 95 | 1012.8 | |
| 20260904234017 | 62 | 0.0 | 0.0 | 0.00 | 0.00 | 0.00 | 94 | 1012.9 | |
| 20260904233537 | 62 | 0.0 | 0.0 | 0.00 | 0.00 | 0.00 | 94 | 1012.8 | |
| 20260904233017 | 62 | 0.0 | 0.0 | 0.00 | 0.00 | 0.00 | 93 | 1012.8 | |
| 20260904232517 | 63 | 0.0 | 0.0 | 0.00 | 0.00 | 0.00 | 92 | 1012.8 | |
| 20260904232017 | 63 | 0.0 | 0.0 | 0.00 | 0.00 | 0.00 | 92 | 1012.8 | |
| 20260904231517 | 64 | 0.0 | 0.0 | 0.00 | 0.00 | 0.00 | 91 | 1012.8 | |
| 20260904231016 | 64 | 0.0 | 0.0 | 0.00 | 0.00 | 0.00 | 90 | 1012.8 | |
| 20260904230517 | 64 | 0.0 | 0.0 | 0.00 | 0.00 | 0.00 | 89 | 1012.8 | |
| 20260904230017 | 65 | 0.0 | 0.0 | 0.00 | 0.00 | 0.00 | 89 | 1012.7 | |
| 20260904225537 | 65 | 0.0 | 0.0 | 0.00 | 0.00 | 0.00 | 88 | 1012.8 | |
| 20260904225016 | 66 | 0.0 | 0.0 | 0.00 | 0.00 | 0.00 | 86 | 1012.8 | |
| 20260904224516 | 66 | 0.0 | 3.0 | 0.00 | 0.00 | 0.00 | 85 | 1012.8 | |
| 20260904224017 | 66 | 293 | 1.0 | 3.0 | 0.00 | 0.00 | 0.00 | 84 | 1012.8 |
| 20260904223537 | 67 | 0.0 | 3.0 | 0.00 | 0.00 | 0.00 | 84 | 1012.7 | |
| 20260904223017 | 67 | 270 | 1.0 | 2.0 | 0.00 | 0.00 | 0.00 | 84 | 1012.7 |
| 20260904222517 | 67 | 315 | 2.0 | 4.0 | 0.00 | 0.00 | 0.00 | 83 | 1012.6 |
| 20260904222017 | 68 | 270 | 1.0 | 3.0 | 0.00 | 0.00 | 0.00 | 83 | 1012.6 |
| 20260904221517 | 68 | 293 | 1.0 | 3.0 | 0.00 | 0.00 | 0.00 | 83 | 1012.5 |
| 20260904221036 | 68 | 293 | 1.0 | 2.0 | 0.00 | 0.00 | 0.00 | 83 | 1012.6 |
| 20260904220537 | 67 | 293 | 1.0 | 2.0 | 0.00 | 0.00 | 0.00 | 82 | 1012.6 |
| 20260904220017 | 67 | 293 | 1.0 | 2.0 | 0.00 | 0.00 | 0.00 | 82 | 1012.7 |
| 20260904215516 | 67 | 315 | 1.0 | 3.0 | 0.00 | 0.00 | 0.00 | 82 | 1012.8 |
| 20260904215017 | 68 | 315 | 2.0 | 4.0 | 0.00 | 0.00 | 0.00 | 81 | 1012.8 |
| 20260904214517 | 68 | 0.0 | 2.0 | 0.00 | 0.00 | 0.00 | 81 | 1012.9 | |
| 20260904214017 | 68 | 315 | 2.0 | 5.0 | 0.00 | 0.00 | 0.00 | 80 | 1012.7 |
| 20260904213537 | 68 | 293 | 2.0 | 4.0 | 0.00 | 0.00 | 0.00 | 80 | 1012.7 |
| 20260904213017 | 68 | 293 | 1.0 | 3.0 | 0.00 | 0.00 | 0.00 | 80 | 1012.8 |
| 20260904212517 | 68 | 315 | 1.0 | 5.0 | 0.00 | 0.00 | 0.00 | 79 | 1012.8 |
| 20260904212017 | 68 | 315 | 2.0 | 5.0 | 0.00 | 0.00 | 0.00 | 79 | 1012.8 |
| 20260904211517 | 69 | 270 | 2.0 | 3.0 | 0.00 | 0.00 | 0.00 | 78 | 1012.9 |
| 20260904211017 | 69 | 315 | 3.0 | 7.0 | 0.00 | 0.00 | 0.00 | 78 | 1012.9 |
| 20260904210517 | 69 | 315 | 3.0 | 6.0 | 0.00 | 0.00 | 0.00 | 76 | 1012.9 |
| 20260904210016 | 69 | 315 | 3.0 | 7.0 | 0.00 | 0.00 | 0.00 | 76 | 1012.9 |
| 20260904205517 | 69 | 315 | 3.0 | 5.0 | 0.00 | 0.00 | 0.00 | 76 | 1012.9 |
| 20260904205016 | 69 | 293 | 1.0 | 5.0 | 0.00 | 0.00 | 0.00 | 77 | 1012.8 |
| 20260904204517 | 70 | 315 | 4.0 | 7.0 | 0.00 | 0.00 | 0.00 | 76 | 1012.8 |
| 20260904204017 | 70 | 315 | 2.0 | 6.0 | 0.00 | 0.00 | 0.00 | 75 | 1012.8 |
| 20260904203557 | 70 | 315 | 3.0 | 9.0 | 0.00 | 0.00 | 0.00 | 76 | 1012.9 |
| 20260904203057 | 70 | 315 | 3.0 | 6.0 | 0.00 | 0.00 | 0.00 | 76 | 1012.9 |
| 20260904202516 | 70 | 315 | 3.0 | 5.0 | 0.00 | 0.00 | 0.00 | 75 | 1013.0 |
| 20260904202117 | 70 | 315 | 5.0 | 10.0 | 0.00 | 0.00 | 0.00 | 74 | 1013.0 |